EHI
1 1 2 2 1 0 0 0 0 0 0 0 0 0 0 0 0 0 0 0 0 0 0 0 1 1 1 1 2 3 3 3 2 2 2 3 3 4 5 5 5 7 7 6 4 3 2 1 0
1 0 1 1 0 0 0 0 0 0 0 0 0 0 0 0 0 0 0 0 0 0 0 0 1 2 1 1 1 2 2 1 1 1 1 2 3 4 4 3 4 5 5 4 3 2 2 2 1
0 0 0 0 0 0 0 0 0 0 0 0 0 0 0 0 0 0 0 0 0 0 0 0 1 1 1 0 0 0 0 0 0 0 0 1 1 2 2 1 1 3 3 2 2 1 1 2 2
0 0 0 0 0 0 0 0 0 0 0 0 0 0 0 0 0 0 0 0 0 0 0 0 0 0 0 0 0 0 0 0 0 0 0 0 0 1 1 0 0 1 1 1 1 1 1 1 2
0 0 0 0 0 0 0 0 0 0 0 0 0 0 0 0 0 0 0 0 0 0 0 0 0 0 0 0 0 0 0 0 0 0 0 0 0 0 0 0 0 0 0 0 0 0 0 1 1
0 0 0 0 0 0 0 0 0 0 0 0 0 0 0 0 0 0 0 0 0 0 0 0 0 0 0 0 0 0 0 0 0 0 0 0 0 0 0 0 0 0 0 0 0 0 0 0 0
0 0 0 0 0 0 0 0 0 0 0 0 0 0 0 0 0 0 0 0 0 0 0 0 0 0 0 0 0 0 0 0 0 0 0 0 0 0 0 0 0 0 0 0 0 0 0 0 0
0 0 0 0 0 0 0 0 0 0 0 0 0 0 0 0 0 0 0 0 0 0 0 0 0 0 0 0 0 0 0 0 0 0 0 0 0 0 0 0 0 0 0 0 0 0 0 0 0
0 0 0 0 0 0 0 0 0 0 0 0 0 0 0 0 0 0 0 0 0 0 0 0 0 0 0 0 0 0 0 0 0 0 0 0 0 0 0 0 0 0 0 0 0 0 0 0 0
0 0 0 0 0 0 0 0 0 0 0 0 0 0 0 0 0 0 0 0 0 0 0 0 0 0 0 0 0 0 0 0 0 0 0 0 0 0 0 0 0 0 0 0 0 0 0 0 0
0 0 0 0 0 0 0 0 0 0 0 0 0 0 0 0 0 0 0 0 0 0 0 0 0 0 0 0 0 0 0 0 0 0 0 0 0 0 0 0 0 0 0 0 0 0 0 0 0
0 0 0 0 0 0 0 0 0 0 0 0 0 0 0 0 0 0 0 0 0 0 0 0 0 0 0 0 0 0 0 0 0 0 0 0 0 0 0 0 0 0 0 0 0 0 0 0 0
0 0 0 0 0 0 0 0 0 0 0 0 0 0 0 0 0 0 0 0 0 0 0 0 0 0 0 0 0 0 0 0 0 0 0 0 0 0 0 0 0 0 0 0 0 0 0 0 0
0 0 0 0 0 0 0 0 0 0 0 0 0 0 0 0 0 0 0 0 0 0 0 0 0 0 0 0 0 0 0 0 0 0 0 0 0 0 0 0 0 0 0 0 0 0 0 0 0
0 0 0 0 0 0 0 0 0 0 0 0 0 0 0 0 0 0 0 0 0 0 0 0 0 0 0 0 0 0 0 0 0 0 0 0 0 0 0 0 0 0 0 0 0 0 0 0 0
0 0 0 0 0 0 0 0 0 0 0 0 0 0 0 0 0 0 0 0 0 0 0 0 0 0 0 0 0 0 0 0 0 0 0 0 0 0 0 0 0 0 0 0 0 0 0 0 0
0 0 0 0 0 0 0 0 0 0 0 0 0 0 0 0 0 0 0 0 0 0 0 0 0 0 0 0 0 0 0 0 0 0 0 0 0 0 0 0 0 0 0 0 0 0 0 0 0
0 0 0 0 0 0 0 0 0 0 0 0 0 0 0 0 0 0 0 0 0 0 0 0 0 0 0 0 0 0 0 0 0 0 0 0 0 0 0 0 0 0 0 0 0 0 0 0 0
0 0 0 0 0 0 0 0 0 0 0 0 0 0 0 0 0 0 0 0 0 0 0 0 0 0 0 0 0 0 0 0 0 0 0 0 0 0 0 0 0 0 0 0 0 0 0 0 0
0 0 0 0 0 0 0 0 0 0 0 0 0 0 0 0 0 0 0 0 0 0 0 0 0 0 0 0 0 0 0 0 0 0 0 0 0 0 0 0 0 0 0 0 0 0 0 0 0
0 0 0 0 0 0 0 0 0 0 0 0 0 0 0 0 0 0 0 0 0 0 0 0 0 0 0 0 0 0 0 0 0 0 0 0 0 0 0 0 0 0 0 0 0 0 0 0 0
0 0 0 0 0 0 0 0 0 0 0 0 0 0 0 0 0 0 0 0 0 0 0 0 0 0 0 0 0 0 0 0 0 0 0 0 0 0 0 0 0 0 0 0 0 0 0 0 0
0 0 0 0 0 0 0 0 0 0 0 0 0 0 0 0 0 0 0 0 0 0 0 0 0 0 0 0 0 0 0 0 0 0 0 0 0 0 0 0 0 0 0 0 0 0 0 0 0
0 0 0 0 0 0 0 0 0 0 0 0 0 0 0 0 0 0 0 0 0 0 0 0 0 0 0 0 0 0 0 0 0 0 0 0 0 0 0 0 0 0 0 0 0 0 0 0 0
0 0 0 0 0 0 0 0 0 0 0 0 0 0 0 0 0 0 0 0 0 0 0 0 0 0 0 0 0 0 0 0 0 0 0 0 0 0 0 0 0 0 0 0 0 0 0 0 0
0 0 0 0 0 0 0 0 0 0 0 0 0 0 0 0 0 0 0 0 0 0 0 0 0 0 0 0 0 0 0 0 0 0 0 0 0 0 0 0 0 0 0 0 0 0 0 0 0
0 0 0 0 0 0 0 0 0 0 0 0 0 0 0 0 0 0 0 0 0 0 0 0 0 0 0 0 0 0 0 0 0 0 0 0 0 0 0 0 0 0 0 0 0 0 0 0 0
0 0 0 0 0 0 0 0 0 0 0 0 0 0 0 0 0 0 0 0 0 0 0 0 0 0 0 0 0 0 0 0 0 0 0 0 0 0 0 0 0 0 0 0 0 0 0 0 0
0 0 0 0 0 0 0 0 0 0 0 0 0 0 0 0 0 0 0 0 0 0 0 0 0 0 0 0 0 0 0 0 0 0 0 0 0 0 0 0 0 0 0 0 0 0 0 0 0
0 0 0 0 0 0 0 0 0 0 0 0 0 0 0 0 0 0 0 0 0 0 0 0 0 0 0 0 0 0 0 0 0 0 0 0 0 0 0 0 0 0 0 0 0 0 0 0 0
Wind_Speed
3 2 3 3 4 2 3 4 2 4 4 5 5 4 5 6 5 6 5 5 5 6 6 8 7 8 9 9 9 9 9 9 10 9 9 9 9 9 8 8 8 8 7 7 7 7 7 7 6
2 2 4 4 4 2 4 3 4 5 6 6 5 5 6 7 6 6 5 6 6 7 6 8 8 9 9 10 10 10 9 9 9 9 9 9 8 8 8 8 8 7 7 7 6 6 6 6 5
1 3 3 3 2 1 4 5 7 8 6 3 4 5 5 6 5 5 6 7 6 7 7 9 8 9 10 10 10 10 9 9 9 9 9 8 8 7 7 7 7 7 6 6 6 5 5 5 5
3 3 3 3 2 3 4 6 7 8 5 4 5 7 6 5 4 7 8 7 8 7 8 10 8 10 10 10 10 10 10 10 9 9 8 8 8 7 7 7 7 6 6 6 5 5 5 5 5
3 3 4 3 3 4 4 5 5 5 4 4 5 7 8 6 9 10 8 7 8 8 9 11 10 10 10 10 10 10 10 10 9 9 9 8 8 8 8 7 6 6 5 5 5 5 5 5 5
3 3 4 3 5 5 5 5 5 5 6 6 6 8 8 8 9 9 9 8 8 8 8 10 11 10 10 9 9 9 9 9 9 8 8 7 7 7 7 6 5 5 5 5 5 5 5 5 4
3 2 2 3 6 5 5 4 3 5 7 6 5 7 9 9 8 9 9 8 8 8 7 7 9 10 10 9 9 9 9 8 8 7 7 6 6 6 5 5 4 4 4 4 5 4 5 4 4
2 2 3 4 6 5 6 4 3 4 6 6 4 6 9 11 9 9 9 8 8 8 7 7 7 7 8 9 10 9 8 7 7 6 6 5 4 4 3 3 5 4 4 4 4 4 5 5 4
3 4 3 3 4 5 7 6 5 4 7 5 3 5 12 13 11 10 8 8 8 7 7 7 7 7 6 7 7 6 6 5 3 5 4 1 2 4 3 8 5 5 4 4 5 5 4 3 5
3 3 2 2 1 5 7 6 6 6 7 7 8 11 14 13 12 11 9 9 8 8 7 6 6 6 6 4 4 3 4 4 3 4 4 3 4 3 3 6 4 4 3 4 5 3 3 4 3
1 1 3 3 3 5 7 6 4 5 5 8 12 15 15 13 11 9 8 7 7 7 6 6 6 5 5 3 3 3 3 3 3 4 4 3 3 2 2 2 4 3 2 3 4 3 2 3 3
2 3 2 4 4 5 6 6 5 2 4 8 12 15 14 12 10 9 8 7 6 6 6 5 5 4 4 4 3 2 2 2 3 3 4 3 3 2 3 2 3 2 2 2 2 2 3 4 5
3 4 4 5 5 5 6 6 5 5 7 10 13 13 12 11 10 8 7 7 7 6 6 5 3 3 4 4 2 2 3 3 4 3 3 4 2 3 2 2 2 2 2 2 2 3 4 4 5
4 5 5 4 5 4 5 5 4 6 9 11 12 12 11 10 9 8 8 7 7 7 6 6 4 4 3 3 3 3 3 3 3 3 4 4 3 3 2 3 3 3 2 3 2 4 4 4 5
5 5 5 3 4 3 4 4 4 7 10 11 12 11 11 9 9 8 8 7 7 7 6 6 4 4 4 4 4 3 3 3 3 3 4 4 4 3 3 3 3 3 3 3 3 5 4 4 5
5 5 5 3 3 3 5 4 6 8 11 11 11 11 10 9 9 8 7 7 6 6 6 6 4 4 5 4 4 3 3 4 3 3 3 4 5 5 4 3 3 3 2 2 3 3 4 4 4
6 6 5 5 4 4 5 4 7 9 10 11 11 11 10 10 9 7 7 6 5 5 6 7 6 5 5 5 4 4 4 4 4 4 4 4 5 5 4 3 3 3 3 3 3 3 3 4 4
5 5 5 5 5 5 5 5 7 9 10 10 10 10 10 10 9 8 7 6 5 5 6 7 7 6 6 5 4 4 4 4 4 4 4 5 4 5 4 3 4 3 3 3 3 4 3 3 3
3 4 4 3 3 5 6 7 8 10 11 11 11 11 11 10 10 8 7 7 7 7 7 6 7 7 6 4 4 3 4 3 4 4 5 4 4 4 4 3 4 3 3 3 4 3 5 4 3
4 5 4 3 2 3 5 6 8 10 12 12 12 12 12 11 11 9 9 8 8 8 8 8 7 7 6 3 3 3 4 3 4 3 4 4 5 5 4 4 4 3 3 3 4 3 2 3 1
5 5 3 2 2 3 4 6 9 10 11 11 11 12 13 13 13 13 11 9 8 9 8 7 7 7 6 6 4 4 4 3 4 4 3 4 5 5 5 5 4 3 3 3 2 2 2 2 2
4 2 3 4 5 4 5 4 8 11 12 13 14 13 13 13 13 12 12 11 10 9 8 8 8 8 7 6 5 5 3 3 4 3 3 4 5 5 5 4 4 4 3 3 3 2 1 1 1
1 2 3 4 5 5 6 6 5 9 12 15 15 15 15 14 14 13 12 11 10 9 8 7 8 7 7 6 5 4 4 3 3 3 4 4 5 5 5 4 4 4 3 4 3 3 2 1 1
5 4 3 3 4 6 6 7 4 7 12 13 15 16 16 15 14 13 12 10 9 9 8 8 8 8 7 6 6 5 5 5 5 4 4 3 3 4 5 4 4 4 3 4 3 3 3 2 2
6 5 4 5 5 4 3 6 4 2 6 10 13 16 16 16 15 14 14 12 11 11 10 9 10 9 8 7 6 6 5 5 5 4 4 3 3 3 4 4 4 4 4 4 3 3 3 3 3
6 6 4 3 3 1 4 6 1 1 3 6 10 13 16 16 15 15 14 13 13 12 11 11 11 9 9 8 7 6 6 4 3 3 4 3 3 3 4 4 4 4 4 4 3 3 3 3 3
5 5 4 5 3 4 4 3 2 3 4 5 8 11 15 16 15 15 14 14 13 13 12 11 11 10 9 9 7 6 6 5 5 4 4 3 4 3 4 4 4 4 4 4 4 4 4 4 4
4 2 3 4 4 3 3 3 2 4 4 6 8 10 13 14 15 15 14 13 13 12 12 11 11 11 10 9 7 6 6 6 5 5 4 4 4 4 4 4 4 4 4 4 4 4 4 5 5
6 6 5 4 4 4 2 2 3 1 2 3 6 8 11 14 15 14 13 13 13 12 11 11 11 10 10 9 8 8 7 6 6 5 4 4 4 5 4 3 3 4 4 4 4 4 4 4 5
7 7 7 5 4 4 3 1 4 0 1 2 3 6 9 12 13 13 13 13 13 13 12 12 12 11 10 9 9 9 8 7 7 6 6 5 5 4 4 4 3 4 3 3 4 4 4 4 4
Wind_Direction
289 233 227 234 232 213 94 87 104 115 87 71 69 67 71 46 32 70 90 101 103 102 101 108 96 94 93 94 95 96 98 99 99 100 100 98 95 92 89 87 84 81 77 74 71 70 70 67 61
300 225 235 241 251 204 106 102 109 87 103 107 82 74 76 71 60 85 103 101 101 95 95 90 96 95 93 91 91 90 91 94 95 96 96 95 92 90 87 86 83 80 75 73 71 69 66 65 60
227 242 256 244 254 358 103 106 105 106 113 116 96 69 63 74 84 89 100 112 102 94 92 90 91 93 92 91 93 91 89 90 91 93 93 92 90 89 84 82 79 76 71 71 69 67 63 63 62
234 221 231 235 130 60 89 118 129 133 117 92 108 93 80 62 79 101 112 113 105 100 94 91 87 92 93 93 92 90 88 86 87 87 87 86 86 83 78 74 72 71 67 67 67 63 59 60 63
243 244 214 182 119 96 101 123 145 131 114 107 108 100 90 79 101 111 112 107 103 97 94 94 86 89 92 91 90 89 88 87 84 82 81 80 78 77 74 72 72 72 69 65 64 59 58 60 65
225 235 221 178 129 121 127 136 147 119 113 115 114 109 96 111 114 112 110 106 101 97 97 102 95 86 85 87 90 89 86 83 80 80 78 77 74 71 69 66 66 67 65 62 62 58 60 62 65
256 236 218 161 145 144 134 142 153 133 127 123 124 114 121 127 118 117 113 108 101 99 98 99 107 107 99 88 83 82 80 78 75 73 72 72 70 66 63 62 59 61 60 61 60 60 63 65 63
291 236 182 172 165 138 132 129 115 124 117 124 137 132 140 140 134 126 120 115 109 104 100 100 98 98 105 103 84 74 72 69 72 69 64 71 100 102 93 98 67 58 63 66 63 63 68 71 68
256 232 196 166 168 135 146 141 120 119 130 128 115 116 132 138 143 139 134 129 121 115 112 108 105 100 94 88 92 94 94 79 112 113 103 195 108 92 115 62 58 59 64 68 68 71 79 101 110
243 229 115 77 125 137 151 143 136 149 145 134 122 121 132 147 154 151 144 137 133 128 119 114 113 110 99 85 90 81 84 83 63 63 70 66 60 54 49 102 82 78 80 110 90 103 169 224 130
232 97 100 103 109 140 146 135 140 155 146 146 145 144 149 156 157 152 145 137 128 125 124 122 117 111 101 94 71 64 71 83 82 68 76 66 74 93 75 101 133 124 147 119 126 178 109 90 74
139 84 95 106 116 144 143 136 137 136 110 136 145 147 154 159 157 154 147 139 141 138 129 126 124 119 102 88 77 80 83 74 72 68 55 61 63 56 65 63 64 79 82 73 73 74 92 91 98
141 107 93 107 115 117 125 127 120 111 117 134 142 151 157 158 155 151 145 144 147 144 145 133 127 111 105 90 73 86 81 70 83 61 48 53 54 60 67 72 71 64 72 92 79 89 88 84 86
112 116 111 112 119 127 131 123 130 122 136 143 151 158 160 158 159 155 157 155 154 156 149 138 141 126 121 116 102 82 86 95 77 69 52 52 61 60 56 71 67 62 61 65 84 88 92 87 83
140 140 133 123 124 137 157 151 147 139 151 152 158 160 158 159 163 166 161 157 153 147 145 134 135 130 118 97 85 89 89 83 76 66 56 63 55 54 53 56 69 66 80 98 84 93 96 97 97
179 190 179 144 150 164 215 180 147 154 164 160 162 160 162 165 171 169 164 161 150 147 142 135 146 137 114 106 104 98 87 78 73 69 54 56 55 53 56 53 67 67 78 96 98 103 103 95 91
199 201 179 154 167 178 213 183 155 167 173 168 169 167 169 168 174 171 169 163 156 153 151 148 140 134 121 114 108 99 91 78 73 67 56 49 51 52 64 52 57 75 78 82 99 97 99 97 95
188 191 181 174 165 195 205 194 165 175 183 177 175 176 178 177 177 175 170 161 158 157 157 148 137 141 131 128 123 114 97 88 75 68 62 48 45 50 64 75 71 74 85 85 94 100 96 99 106
198 196 188 167 167 209 211 201 182 180 188 187 183 187 188 186 179 176 174 171 168 166 165 157 159 155 151 146 143 128 111 104 88 69 58 55 54 57 65 63 69 63 78 81 100 113 120 115 114
201 203 195 166 155 221 217 215 196 190 197 197 194 195 194 185 182 182 186 184 180 175 177 173 169 166 162 149 131 118 110 99 85 86 76 58 58 56 63 71 81 80 84 89 94 106 114 112 117
214 222 210 188 166 205 228 226 204 198 202 203 208 206 201 193 190 186 188 186 184 181 183 178 172 171 166 155 140 134 126 131 124 105 81 59 58 60 58 62 67 72 81 90 91 109 117 126 110
218 215 226 211 217 211 220 244 209 198 200 205 208 208 205 198 198 190 187 186 189 185 181 183 173 175 166 163 166 155 144 121 101 100 100 92 73 68 60 64 62 71 70 84 91 86 95 112 117
180 134 209 228 242 243 222 247 213 190 207 208 207 206 205 198 195 193 190 187 188 181 179 183 170 170 168 172 161 171 149 126 122 123 113 101 83 70 67 63 67 70 72 71 73 75 55 65 44
150 159 169 208 237 240 221 238 233 194 211 205 202 201 201 197 193 191 188 183 181 178 174 175 171 170 169 175 175 173 152 152 143 136 121 114 103 88 80 71 69 71 71 72 71 74 72 56 57
199 208 207 206 210 224 183 239 250 205 216 211 203 199 197 195 190 188 185 184 181 179 178 177 175 172 173 178 179 172 168 159 151 141 129 122 109 97 86 81 75 70 69 73 74 77 72 79 69
205 231 249 253 240 189 197 237 211 149 225 214 207 201 193 192 192 190 187 185 184 182 179 181 179 177 176 180 178 174 164 164 142 139 132 123 105 94 91 86 80 79 77 80 74 70 71 73 80
201 221 278 283 275 257 213 218 204 176 174 179 187 192 192 191 191 190 188 187 185 183 180 182 179 178 178 180 174 172 172 163 152 150 138 126 117 111 108 100 96 87 80 76 80 73 77 75 73
271 222 213 238 255 244 226 223 186 159 165 170 181 189 188 187 188 189 186 186 187 184 179 180 181 179 177 176 174 169 170 163 160 158 149 141 130 122 122 120 111 107 104 93 80 80 75 89 83
192 209 226 238 265 281 260 109 68 146 168 180 185 188 188 185 186 185 184 183 182 180 179 179 181 179 175 176 173 170 168 167 166 163 153 155 149 147 134 121 115 110 109 107 98 88 92 93 98
232 230 225 238 230 254 279 18 90 211 246 215 204 189 185 184 183 182 181 179 177 178 180 182 181 178 177 176 175 174 165 171 171 166 167 168 158 149 142 131 125 112 104 101 104 102 99 90 88